Time,TemperatureF,DewpointF,PressureIn,WindDirection,WindDirectionDegrees,WindSpeedMPH,WindSpeedGustMPH,Humidity,HourlyPrecipIn,Conditions,Clouds,dailyrainin,SolarRadiationWatts/m^2,SoftwareType,DateUTC
2013-07-29 00:33:00,57.0,36.0,-100.00,ENE,77,4.0,10.0,46,0.00,,,0.00,1.000000,,2013-07-29 07:33:00,
2013-07-29 00:43:00,57.0,36.0,-100.00,ENE,77,4.0,10.0,46,0.00,,,0.00,1.000000,,2013-07-29 07:43:00,
2013-07-29 00:53:00,57.0,36.0,-100.00,ENE,77,4.0,10.0,46,0.00,,,0.00,1.000000,,2013-07-29 07:53:00,
2013-07-29 01:33:00,53.0,37.0,-100.00,ENE,76,4.0,6.0,54,0.00,,,0.00,1.000000,,2013-07-29 08:33:00,
2013-07-29 01:42:00,53.0,37.0,-100.00,ENE,76,4.0,6.0,54,0.00,,,0.00,1.000000,,2013-07-29 08:42:00,
2013-07-29 01:52:00,53.0,37.0,-100.00,ENE,76,4.0,6.0,54,0.00,,,0.00,1.000000,,2013-07-29 08:52:00,
2013-07-29 02:22:00,52.0,37.0,-100.00,ENE,66,5.0,9.0,56,0.00,,,0.00,1.000000,,2013-07-29 09:22:00,
2013-07-29 02:33:00,52.0,37.0,-100.00,ENE,66,5.0,9.0,56,0.00,,,0.00,1.000000,,2013-07-29 09:33:00,
2013-07-29 02:43:00,52.0,37.0,-100.00,ENE,66,5.0,9.0,56,0.00,,,0.00,1.000000,,2013-07-29 09:43:00,
2013-07-29 02:53:00,52.0,37.0,-100.00,ENE,66,5.0,9.0,56,0.00,,,0.00,1.000000,,2013-07-29 09:53:00,
2013-07-29 03:34:00,51.0,38.0,-100.00,ENE,57,5.0,9.0,60,0.00,,,0.00,1.000000,,2013-07-29 10:34:00,
2013-07-29 03:45:00,51.0,38.0,-100.00,ENE,57,5.0,9.0,60,0.00,,,0.00,1.000000,,2013-07-29 10:45:00,
2013-07-29 03:53:00,51.0,38.0,-100.00,ENE,57,5.0,9.0,60,0.00,,,0.00,1.000000,,2013-07-29 10:53:00,
2013-07-29 04:34:00,49.0,37.0,-100.00,ENE,73,5.0,9.0,63,0.00,,,0.00,1.000000,,2013-07-29 11:34:00,
2013-07-29 04:44:00,49.0,37.0,-100.00,ENE,73,5.0,9.0,63,0.00,,,0.00,1.000000,,2013-07-29 11:44:00,
2013-07-29 04:54:00,49.0,37.0,-100.00,ENE,73,5.0,9.0,63,0.00,,,0.00,1.000000,,2013-07-29 11:54:00,
2013-07-29 05:24:00,47.0,37.0,-100.00,ENE,66,6.0,10.0,68,0.00,,,0.00,1.000000,,2013-07-29 12:24:00,
2013-07-29 05:34:00,47.0,37.0,-100.00,ENE,66,6.0,10.0,68,0.00,,,0.00,1.000000,,2013-07-29 12:34:00,
2013-07-29 05:44:00,47.0,37.0,-100.00,ENE,66,6.0,10.0,68,0.00,,,0.00,1.000000,,2013-07-29 12:44:00,
2013-07-29 05:53:00,47.0,37.0,-100.00,ENE,66,6.0,10.0,68,0.00,,,0.00,1.000000,,2013-07-29 12:53:00,
2013-07-29 06:24:00,45.0,36.0,-100.00,ENE,63,7.0,12.0,71,0.00,,,0.00,1.000000,,2013-07-29 13:24:00,
2013-07-29 06:34:00,45.0,36.0,-100.00,ENE,63,7.0,12.0,71,0.00,,,0.00,1.000000,,2013-07-29 13:34:00,
2013-07-29 06:43:00,45.0,36.0,-100.00,ENE,63,7.0,12.0,71,0.00,,,0.00,1.000000,,2013-07-29 13:43:00,
2013-07-29 06:54:00,45.0,36.0,-100.00,ENE,63,7.0,12.0,71,0.00,,,0.00,1.000000,,2013-07-29 13:54:00,
2013-07-29 07:33:00,46.0,35.0,-100.00,ENE,57,7.0,11.0,66,0.00,,,0.00,30.000000,,2013-07-29 14:33:00,
2013-07-29 07:43:00,46.0,35.0,-100.00,ENE,57,7.0,11.0,66,0.00,,,0.00,30.000000,,2013-07-29 14:43:00,
2013-07-29 07:54:00,46.0,35.0,-100.00,ENE,57,7.0,11.0,66,0.00,,,0.00,30.000000,,2013-07-29 14:54:00,
2013-07-29 08:24:00,49.0,37.0,-100.00,ENE,61,6.0,11.0,62,0.00,,,-99.99,98.000000,,2013-07-29 15:24:00,
2013-07-29 08:36:00,49.0,37.0,-100.00,ENE,61,6.0,11.0,62,0.00,,,-99.99,98.000000,,2013-07-29 15:36:00,
2013-07-29 08:44:00,49.0,37.0,-100.00,ENE,61,6.0,11.0,62,0.00,,,-99.99,98.000000,,2013-07-29 15:44:00,
2013-07-29 08:53:00,49.0,37.0,-100.00,ENE,61,6.0,11.0,62,0.00,,,-99.99,98.000000,,2013-07-29 15:53:00,
2013-07-29 09:23:00,56.0,38.0,-100.00,NE,56,6.0,10.0,51,0.00,,,0.00,270.000000,,2013-07-29 16:23:00,
2013-07-29 09:36:00,56.0,38.0,-100.00,NE,56,6.0,10.0,51,0.00,,,0.00,270.000000,,2013-07-29 16:36:00,
2013-07-29 09:44:00,56.0,38.0,-100.00,NE,56,6.0,10.0,51,0.00,,,0.00,270.000000,,2013-07-29 16:44:00,
2013-07-29 09:54:00,56.0,38.0,-100.00,NE,56,6.0,10.0,51,0.00,,,0.00,270.000000,,2013-07-29 16:54:00,
2013-07-29 10:37:00,66.0,39.0,-100.00,NE,55,3.0,10.0,37,0.00,,,0.00,555.000000,,2013-07-29 17:37:00,
2013-07-29 10:43:00,66.0,39.0,-100.00,NE,55,3.0,10.0,37,0.00,,,0.00,555.000000,,2013-07-29 17:43:00,
2013-07-29 10:54:00,66.0,39.0,-100.00,NE,55,3.0,10.0,37,0.00,,,0.00,555.000000,,2013-07-29 17:54:00,
2013-07-29 11:34:00,70.0,43.0,-100.00,West,260,6.0,9.0,37,0.00,,,0.00,705.000000,,2013-07-29 18:34:00,
2013-07-29 11:43:00,70.0,43.0,-100.00,West,260,6.0,9.0,37,0.00,,,0.00,705.000000,,2013-07-29 18:43:00,
2013-07-29 11:53:00,70.0,43.0,-100.00,West,260,6.0,9.0,37,0.00,,,0.00,705.000000,,2013-07-29 18:53:00,
2013-07-29 12:44:00,77.0,40.0,-100.00,SSW,204,5.0,11.0,27,0.00,,,0.00,895.000000,,2013-07-29 19:44:00,
2013-07-29 12:53:00,77.0,40.0,-100.00,SSW,204,5.0,11.0,27,0.00,,,0.00,895.000000,,2013-07-29 19:53:00,
2013-07-29 13:23:00,80.0,40.0,-100.00,SW,221,7.0,13.0,24,0.00,,,0.00,881.000000,,2013-07-29 20:23:00,
2013-07-29 13:33:00,80.0,40.0,-100.00,SW,221,7.0,13.0,24,0.00,,,0.00,881.000000,,2013-07-29 20:33:00,
2013-07-29 13:45:00,80.0,40.0,-100.00,SW,221,7.0,13.0,24,0.00,,,0.00,881.000000,,2013-07-29 20:45:00,
2013-07-29 14:44:00,83.0,38.0,-100.00,South,191,7.0,17.0,20,0.00,,,0.00,984.000000,,2013-07-29 21:44:00,
2013-07-29 15:24:00,84.0,39.0,-100.00,West,272,9.0,18.0,20,0.00,,,0.00,880.000000,,2013-07-29 22:24:00,
2013-07-29 15:35:00,84.0,39.0,-100.00,West,272,9.0,18.0,20,0.00,,,0.00,880.000000,,2013-07-29 22:35:00,
2013-07-29 15:43:00,84.0,39.0,-100.00,West,272,9.0,18.0,20,0.00,,,0.00,880.000000,,2013-07-29 22:43:00,
2013-07-29 15:54:00,84.0,39.0,-100.00,West,272,9.0,18.0,20,0.00,,,0.00,880.000000,,2013-07-29 22:54:00,
2013-07-29 16:44:00,82.0,42.0,-100.00,West,279,9.0,18.0,24,0.00,,,0.00,727.000000,,2013-07-29 23:44:00,
2013-07-29 16:53:00,82.0,42.0,-100.00,West,279,9.0,18.0,24,0.00,,,0.00,727.000000,,2013-07-29 23:53:00,
2013-07-29 17:44:00,80.0,39.0,-100.00,WNW,298,12.0,21.0,23,0.00,,,-99.99,562.000000,,2013-07-30 00:44:00,
2013-07-29 17:53:00,80.0,39.0,-100.00,WNW,298,12.0,21.0,23,0.00,,,-99.99,562.000000,,2013-07-30 00:53:00,
2013-07-29 18:23:00,76.0,38.0,-100.00,WNW,283,13.0,22.0,25,0.00,,,0.00,291.000000,,2013-07-30 01:23:00,
2013-07-29 18:35:00,76.0,38.0,-100.00,WNW,283,13.0,22.0,25,0.00,,,0.00,291.000000,,2013-07-30 01:35:00,
2013-07-29 18:44:00,76.0,38.0,-100.00,WNW,283,13.0,22.0,25,0.00,,,0.00,291.000000,,2013-07-30 01:44:00,
2013-07-29 18:53:00,76.0,38.0,-100.00,WNW,283,13.0,22.0,25,0.00,,,0.00,291.000000,,2013-07-30 01:53:00,
2013-07-29 19:23:00,75.0,40.0,-100.00,NW,306,11.0,24.0,28,0.00,,,0.00,339.000000,,2013-07-30 02:23:00,
2013-07-29 19:34:00,75.0,40.0,-100.00,NW,306,11.0,24.0,28,0.00,,,0.00,339.000000,,2013-07-30 02:34:00,
2013-07-29 19:44:00,75.0,40.0,-100.00,NW,306,11.0,24.0,28,0.00,,,0.00,339.000000,,2013-07-30 02:44:00,
2013-07-29 20:24:00,72.0,42.0,-100.00,West,278,10.0,15.0,34,0.00,,,0.00,132.000000,,2013-07-30 03:24:00,
2013-07-29 20:34:00,72.0,42.0,-100.00,West,278,10.0,15.0,34,0.00,,,0.00,132.000000,,2013-07-30 03:34:00,
2013-07-29 20:43:00,72.0,42.0,-100.00,West,278,10.0,15.0,34,0.00,,,0.00,132.000000,,2013-07-30 03:43:00,
2013-07-29 20:52:00,72.0,42.0,-100.00,West,278,10.0,15.0,34,0.00,,,0.00,132.000000,,2013-07-30 03:52:00,
2013-07-29 21:22:00,67.0,42.0,-100.00,NNW,338,3.0,15.0,40,0.00,,,0.00,23.000000,,2013-07-30 04:22:00,
2013-07-29 21:33:00,67.0,42.0,-100.00,NNW,338,3.0,15.0,40,0.00,,,0.00,23.000000,,2013-07-30 04:33:00,
2013-07-29 21:43:00,67.0,42.0,-100.00,NNW,338,3.0,15.0,40,0.00,,,0.00,23.000000,,2013-07-30 04:43:00,
2013-07-29 21:52:00,67.0,42.0,-100.00,NNW,338,3.0,15.0,40,0.00,,,0.00,23.000000,,2013-07-30 04:52:00,
2013-07-29 22:22:00,67.0,38.0,-100.00,West,273,6.0,13.0,34,0.00,,,0.00,1.000000,,2013-07-30 05:22:00,
2013-07-29 22:32:00,67.0,38.0,-100.00,West,273,6.0,13.0,34,0.00,,,0.00,1.000000,,2013-07-30 05:32:00,
2013-07-29 22:45:00,67.0,38.0,-100.00,West,273,6.0,13.0,34,0.00,,,0.00,1.000000,,2013-07-30 05:45:00,
2013-07-29 22:52:00,67.0,38.0,-100.00,West,273,6.0,13.0,34,0.00,,,0.00,1.000000,,2013-07-30 05:52:00,
2013-07-29 23:22:00,64.0,35.0,-100.00,WSW,256,7.0,14.0,34,0.00,,,0.00,1.000000,,2013-07-30 06:22:00,
2013-07-29 23:32:00,64.0,35.0,-100.00,WSW,256,7.0,14.0,34,0.00,,,0.00,1.000000,,2013-07-30 06:32:00,
2013-07-29 23:43:00,64.0,35.0,-100.00,WSW,256,7.0,14.0,34,0.00,,,0.00,1.000000,,2013-07-30 06:43:00,
2013-07-29 23:52:00,64.0,35.0,-100.00,WSW,256,7.0,14.0,34,0.00,,,0.00,1.000000,,2013-07-30 06:52:00,